Showing default

SHIYAN 6 (SY-6), 43711

Orbit data source: Space-Track

SHIYAN 6 (SY-6), 43711 is a payload satellite owned by CNSA (CN) in SSO that was launched on Mon, 19 Nov 2018 UTC via a CHANG ZHENG 2D launch vehicle from the Jiuquan Satellite Launch Center, China (JSC). Payload-class satellites include a variety of spacecraft equipped with specific instruments for various scientific and technological missions. These include communications satellites like Starlink; space stations such as the ISS; scientific satellites like the Hubble; Earth observation satellites from companies like Planet Labs, Umbra, and HawkEye 360; GPS; miniature CubeSats for education and research; and military/defense satellites.

Loading next visibility...
Identifier
43711, 2018-094B
Orbit
SSO
Country
Flag of CNCN / PRC
Related business
Manufacturer
DFH Shenzhen
Mission
Operational Defense Technology
Bus & Motor
SW6, AOCS
Mass
~1,000 kg wet, ~900 kg dry
Launch date (UTC)
2018-11-19 (7 years ago)
Launch vehicle
CHANG ZHENG 2D
Launch site
Jiuquan Satellite Launch Center, China (JSC)
Object type
Payload
Rocket body
Debris
Shape & HBR
Box + 2 Pan, 2.0 m
Radar Cross Section
3.315 m², Large (>1 m²)

Expand to show TLE details & history
Last TLE update: 17 hours ago

TLE from 17 hours ago
0 SHIYAN 6 (SY-6)
1 43711U 18094B   25341.29656299  .00008887  00000-0  33363-3 0  9993
2 43711  97.3687 352.4947 0015321 107.2786 253.0132 15.27324795392178
Epoch: 2025-12-07T07:07Z
TLE epoch observation values (Epoch: 2025-12-07T07:07:03.042Z)
Latitude
0.00008°
Longitude
169.42003°
Altitude
490.002 km
Speed
7.618 km/s
True Right ascension
23h 29m 58s
True Declination
0° 00' 00"
Sunlit
Object was in daylight at epoch
Visualization orbit readout
Latitude
Unknown
Longitude
Unknown
Altitude
Unknown
Speed
Unknown
Apparent Right ascension
Unknown
Apparent Declination
Unknown
Sunlit
N/A
Visualization observer readout
Local Sidereal Time
22:28:09
Azimuth
Unknown
Elevation
Unknown
Doppler factor
Unknown
Orbital elements
Apogee altitude
491.276 km
Perigee altitude
470.259 km
Semi-major axis
6,858.905 km
Eccentricity
0.00153
Inclination
97.3687°
RAAN
352.4947°
Arg. of periapsis
107.2786°
True anomaly
252.84539°
Mean anomaly
253.0132°
Eccentric anomaly
252.92928°
Mean motion
3.82086 °/min
Orbital period
94.22 mins
BSTAR
0.00033363
Loading maneuver chart data...
Computing Atmospheric mass density...
Loading historical data...
Loading historical data...
Loading historical data...
Loading historical data...
Loading historical data...
Loading historical data...
Loading historical data...

Documentation

Showing up to 5 results
|